Weather History for Buffalo, WY

Change the Weather History Date:

Friday, July 19, 2013

  Actual Average Record
Temperature  
Mean Temperature 77 °F 72 °F  
Max Temperature 93 °F 86 °F 97 °F (2012)
Min Temperature 61 °F 58 °F 51 °F (2008)
Degree Days  
Heating Degree Days 0 1  
Month to date heating degree days 0 22  
Since 1 June heating degree days 100 185  
Since 1 July heating degree days 0 22  
Cooling Degree Days 12 7  
Month to date cooling degree days 176 111  
Year to date cooling degree days 263 169  
Since 1 June cooling degree days 253 162  
Growing Degree Days 27 (Base 50)    
Moisture  
Dew Point 45 °F    
Average Humidity 37    
Maximum Humidity 56    
Minimum Humidity 18    
Precipitation  
Precipitation 0.00 in 0.05 in 0.09 in (2011)
Month to date precipitation T 1.04  
Year to date precipitation 4.08 8.84  
Sea Level Pressure  
Sea Level Pressure 29.94 in    
Wind  
Wind Speed 7 mph (WNW)    
Max Wind Speed 20 mph    
Max Gust Speed 25 mph    
Visibility 10 miles    
Events      
T = Trace of Precipitation, MM = Missing Value Source: NWS Daily Summary

Daily Weather History Graph

Daily Weather History Graph

Search for Another Location

Airport:

Trip Planner

Search our weather history database for the weather conditions in past years. The results will help you decide how hot, cold, wet, or windy it might be!

Date:

Astronomy

Jul. 19, 2013 Rise Set
Actual Time 5:40 AM MDT 8:45 PM MDT
Civil Twilight 5:05 AM MDT 9:19 PM MDT
Nautical Twilight 4:21 AM MDT 10:04 PM MDT
Astronomical Twilight 3:27 AM MDT 10:57 PM MDT
Moon 5:50 PM MDT (7/19) 2:25 AM MDT (7/19)
Length of Visible Light 16h 14m
Length of Day
15h 04m
Waxing Gibbous, 87% of the Moon is Illuminated
Jul 19
Waxing Gibbous
Jul 22
Full
Jul 29
Last Quarter
Aug 6
New
Aug 14
First Quarter

Hourly Weather History & Observations

Time (MDT) Temp. Dew Point Humidity Pressure Visibility Wind Dir Wind Speed Gust Speed Precip Events Conditions
12:53 AM 66.9 °F 48.9 °F 52% 30.04 in 10.0 mi West 4.6 mph - N/A   Clear
1:53 AM 66.0 °F 48.0 °F 52% 30.04 in 10.0 mi WSW 8.1 mph - N/A   Clear
2:53 AM 68.0 °F 48.0 °F 49% 30.03 in 10.0 mi West 3.5 mph - N/A   Mostly Cloudy
3:53 AM 66.0 °F 48.0 °F 52% 30.01 in 10.0 mi Calm Calm - N/A   Clear
4:53 AM 63.0 °F 46.9 °F 56% 30.01 in 10.0 mi Calm Calm - N/A   Clear
5:53 AM 64.0 °F 46.9 °F 54% 30.02 in 10.0 mi WNW 3.5 mph - N/A   Partly Cloudy
6:53 AM 64.9 °F 48.9 °F 56% 30.03 in 10.0 mi Calm Calm - N/A   Partly Cloudy
7:53 AM 71.1 °F 45.0 °F 39% 30.03 in 10.0 mi ESE 5.8 mph - N/A   Clear
8:53 AM 75.0 °F 44.1 °F 33% 30.02 in 10.0 mi East 6.9 mph - N/A   Clear
9:53 AM 78.1 °F 43.0 °F 29% 30.01 in 10.0 mi SSE 8.1 mph - N/A   Clear
10:53 AM 81.0 °F 44.1 °F 27% 29.99 in 10.0 mi SE 8.1 mph - N/A   Clear
11:53 AM 82.9 °F 45.0 °F 26% 29.96 in 10.0 mi Variable 5.8 mph - N/A   Clear
12:53 PM 86.0 °F 45.0 °F 24% 29.94 in 10.0 mi South 6.9 mph 18.4 mph N/A   Clear
1:53 PM 88.0 °F 44.1 °F 22% 29.91 in 10.0 mi SSE 6.9 mph - N/A   Clear
2:53 PM 90.0 °F 44.1 °F 20% 29.88 in 10.0 mi ESE 8.1 mph - N/A   Clear
3:53 PM 91.0 °F 44.1 °F 20% 29.85 in 10.0 mi Variable 3.5 mph - N/A   Clear
4:53 PM 91.0 °F 43.0 °F 19% 29.85 in 10.0 mi Calm Calm - N/A   Clear
5:53 PM 91.0 °F 43.0 °F 19% 29.83 in 10.0 mi NNE 12.7 mph 18.4 mph N/A   Clear
6:53 PM 88.0 °F 43.0 °F 21% 29.84 in 10.0 mi North 15.0 mph - N/A   Clear
7:53 PM 84.0 °F 45.0 °F 25% 29.85 in 10.0 mi North 8.1 mph - N/A   Clear
8:53 PM 80.1 °F 43.0 °F 27% 29.85 in 10.0 mi NNW 17.3 mph - N/A   Clear
9:53 PM 77.0 °F 43.0 °F 30% 29.88 in 10.0 mi WNW 11.5 mph - N/A   Clear
10:53 PM 75.9 °F 43.0 °F 31% 29.87 in 10.0 mi WNW 13.8 mph - N/A   Clear
11:53 PM 73.0 °F 43.0 °F 34% 29.87 in 10.0 mi NW 10.4 mph - N/A   Clear